Weather Roundup
Issued by NWS

Home | Current Version | Previous Version | Graphics & Text | Print | Product List | Glossary Off
Versions: 1 2 3 4 5 6 7 8 9 10 11 12 13 14 15 16 17 18 19 20 21 22 23 24 25 26 27 28 29 30 31 32 33 34 35 36 37 38 39 40 41 42 43 44 45 46 47 48 49 50

945
NZUS93 KARX 221110
HRRWXR

CURRENT HOURLY OBSERVATIONS ACROSS
MUCH OF THE UPPER MISSISSIPPI VALLEY
NATIONAL WEATHER SERVICE LA CROSSE WI
600 AM CDT TUE AUG 22 2017


...SOUTHEAST MINNESOTA...


CITY           SKY/WX    TMP DP  RH WIND       PRES   REMARKS
ROCHESTER      CLEAR     60  59  96 NW14      29.94R
ROCHESTER/MAYO FAIR      61  60  98 W15       29.93R
WINONA         PTCLDY    63  59  88 NW8       29.89R
AUSTIN         CLEAR     61  57  88 NW12      29.95R
ALBERT LEA     CLEAR     63  61  94 NW7       29.98R
DODGE CENTER   CLEAR     61  57  88 NW10      29.95R
PRESTON        PTCLDY    60  58  93 NW12      29.92R
OWATONNA       CLEAR     59  57  94 NW9       29.97R
FARIBAULT      CLEAR     61  57  88 W7        29.97R
$$

...ELSEWHERE IN MINNESOTA...


CITY           SKY/WX    TMP DP  RH WIND       PRES   REMARKS
MINNEAPOLIS    CLEAR     61  56  83 NW13      29.95R
INTNL FALLS    CLOUDY    50  49  96 W6        29.89F
DULUTH         MOCLDY    52  52 100 NW10      29.90R
RED WING       CLEAR     63  57  82 NW7       29.91R
REDWOOD FALLS  CLEAR     55  52  89 NW8       30.03R
MANKATO        CLEAR     58  56  93 NW8       30.00R
WORTHINGTON    CLEAR     54  51  90 NW9       30.08R
FAIRMONT       CLEAR     57  54  89 NW12      30.02R
$$

...SOUTHWEST WISCONSIN...


CITY           SKY/WX    TMP DP  RH WIND       PRES   REMARKS
LA CROSSE      MOCLDY    68  63  84 NW9       29.86R
PRAIRIE DU CHI MOCLDY    64  61  89 CALM      29.88R
BOSCOBEL       CLOUDY    66  63  90 SW5       29.87R
LONE ROCK      CLOUDY    65  64  97 SW5       29.85R
PLATTEVILLE    CLOUDY    64  64 100 W6        29.89R
FORT MC COY    CLOUDY    61  61  98 W6        29.86R
CAMP DOUGLAS   MOCLDY    64  64 100 W10       29.83R
MAUSTON-NEW LI CLOUDY    65  63  92 NW6       29.82S
VIROQUA        CLOUDY    63  63 100 CALM      29.87R
WIS DELLS      CLOUDY    64  61  90 W7        29.84S
$$

...ELSEWHERE IN WISCONSIN...


CITY           SKY/WX    TMP DP  RH WIND       PRES   REMARKS
MILWAUKEE      CLOUDY    72  64  76 W9        29.81S
MADISON        CLOUDY    66  62  87 VRB3      29.84R
GREEN BAY      PTCLDY    65  64  97 SW7       29.75R
EAU CLAIRE     CLEAR     62  59  90 NW10      29.87R
BLACK RVR FLS  CLOUDY    65  65  99 NW7       29.84R
MEDFORD        PTCLDY    58  55  88 NW12      29.85R
WAUSAU         CLOUDY    65  58  78 NW17G24   29.79R
WIS RAPIDS     CLOUDY    66  63  90 NW9       29.82R
MARSHFIELD     CLEAR     63  59  87 NW13      29.82R
RICE LAKE      PTCLDY    58  56  93 NW6       29.91R
$$

...NORTHEAST IOWA...


CITY           SKY/WX    TMP DP  RH WIND       PRES   REMARKS
WATERLOO       CLEAR     62  61  96 W9        29.93R
DUBUQUE        MOCLDY    63  62  97 NW8       29.90R
DECORAH        PTCLDY    63  61  94 VRB6      29.90R
MASON CITY     NOT AVBL
CHARLES CITY   CLEAR     61  61 100 NW8       29.94R
OELWEIN        CLOUDY    63  63 100 W12       29.94R
$$

...ELSEWHERE IN IOWA...


CITY           SKY/WX    TMP DP  RH WIND       PRES   REMARKS
DES MOINES     MOCLDY    65  63  93 NW10      30.00R
IOWA CITY      MOCLDY    67  64  90 W8        29.94R
FORT DODGE     CLEAR     61  55  82 NW3       30.01R
MARSHALLTOWN   PTCLDY    63  63 100 W8        29.97R
CEDAR RAPIDS   CLOUDY    64  63  96 NW13      29.93R
$$

...NORTHERN ILLINOIS...


CITY           SKY/WX    TMP DP  RH WIND       PRES   REMARKS
CHICAGO-OHARE  CLOUDY    72  67  84 W8        29.86S
CHICAGO-MIDWAY LGT RAIN  72  70  94 SW13      29.88R
MOLINE         CLOUDY    69  65  86 W6        29.91S
ROCKFORD       CLOUDY    68  64  87 W6        29.89R
PEORIA         LGT RAIN  68  68 100 S6        29.90F
$$

NOTE: "FAIR" INDICATES FEW OR NO CLOUDS BELOW 12,000 FEET WITH NO
SIGNIFICANT WEATHER AND/OR OBSTRUCTIONS TO VISIBILITY. WIND
SPEEDS ARE IN MILES-PER-HOUR.




USA.gov is the U.S. government's official web portal to all federal, state and local government web resources and services.